Weather in Hitachi

Japan     36°34′06″N   140°38′20″E
temp.,
°C
wind,
m/s
gust,
m/s
humid.,
%
clouds,
%
prec.,
mm/h
press.,
hPa
HPBL,
m
6 march, sat
sat600:00+13wsw238269 0.0 1020193
03:00+12w338382 0.0 1018193
06:00+12w3484100 0.0 1018164
09:00+13sw3379100 0.0 1017175
12:00+15se227588 0.0 101639
15:00+15nne10126692 0.0 1017400
18:00+12nne10106196 0.0 1020794
21:00+10nne13156198 0.0 10231012
7 march, sun
sun700:00+8nne121363100 0.0 10251107
03:00+6nne9115950 0.0 1026970
06:00+5nne99589 0.0 10281036
09:00+5ne9106328 0.0 10301067
12:00+5ene876137 0.0 10281049
15:00+6ene665866 0.0 1027905
18:00+7ene345699 0.0 1028878
21:00+7sse2359100 0.0 10281129
8 march, mon
mon800:00+8s4463100 0.0 10271022
03:00+8sw3462100 0.0 1026759
06:00+7wnw3365100 0.0 1026232
09:00+8nw2262100 0.0 1026279
12:00+9ene2263100 0.0 1025316
15:00+10ene447195 0.0 1023522
18:00+9ne767540 0.0 1025700
21:00+10ne776335 0.0 1027991
9 march, tue
tue900:00+9ne876435 0.0 10261024
03:00+9ne776668 0.0 10261003
06:00+8nne557299 0.1 1027752
09:00+9ne447496 0.3 1027711
12:00+9ene3472100 0.4 1025746
15:00+9ese3478100 0.9 1023589
18:00+11ese2477100 0.3 1023600
21:00+12sw4683100 1.1 1022562
10 march, wed
wed1000:00+12ssw5983100 0.8 1020635
03:00+10wsw3490100 1.6 1019279
06:00+11nw3379100 0.6 1019193
09:00+12nw556385 0.7 1020569
12:00+14nw57491 0.0 1020349
15:00+12n1010491 0.0 10201099
18:00+10n912510 0.0 1023501
21:00+9nne911480 0.0 1027674